Date String (YYYY-MM-DD hh:mm:ss) UTC,Instrument flags,Ambient pressure (hPa),Sample flow (lpm),Bypass flow (lpm),Sample temperature (°C),Ambient temperature (°C),ASC tube jacket temperature (°C),LED temperature (°C),Box temperature (°C),Sample RH (%),Span deviation,Mass concentration (μg/m³),Mass concentration (μg/m³),Mass concentration (μg/m³)
DateTimeUTC,F1_M11,P_M11,Q1_M11,Q2_M11,T1_M11,T2_M11,T3_M11,T4_M11,T5_M11,U1_M11,ZSPAN_M11,X0_M11,X2_M11,X1_M11
2022-09-26 12:00:00,,0832.7,5.01,0.00,29.1,27.1,00.0,38.1,30.9,15.9,0000.0,0011.32,0006.08,0005.50
2022-09-26 12:01:00,,0832.7,4.98,0.00,29.1,27.1,00.0,38.1,30.8,15.9,0000.0,0011.15,0006.11,0005.51
2022-09-26 12:02:00,,0832.7,5.01,0.00,29.1,27.1,00.0,38.1,30.8,16.0,0000.0,0011.13,0006.12,0005.53
2022-09-26 12:03:00,,0832.7,5.00,0.00,29.1,27.0,00.0,38.1,30.8,16.0,0000.0,0011.04,0006.13,0005.54
2022-09-26 12:04:00,,0832.7,5.00,0.00,29.0,27.0,00.0,38.0,30.8,16.1,0000.0,0010.98,0006.17,0005.56
2022-09-26 12:05:00,,0832.7,5.01,0.00,29.0,27.0,00.0,38.0,30.7,16.1,0000.0,0011.07,0006.20,0005.57
2022-09-26 12:06:00,,0832.7,5.00,0.00,29.0,26.9,00.0,38.0,30.7,16.2,0000.0,0011.05,0006.16,0005.57
2022-09-26 12:07:00,,0832.7,4.99,0.00,28.9,26.9,00.0,38.0,30.7,16.2,0000.0,0010.08,0006.13,0005.57
2022-09-26 12:08:00,,0832.6,5.02,0.00,28.9,26.8,00.0,37.9,30.7,16.2,0000.0,0009.76,0006.09,0005.56
2022-09-26 12:09:00,,0832.6,4.99,0.00,28.9,26.8,00.0,37.9,30.6,16.3,0000.0,0009.78,0006.11,0005.57
2022-09-26 12:10:00,,0832.6,5.00,0.00,28.9,26.8,00.0,37.9,30.6,16.3,0000.0,0009.83,0006.12,0005.57
2022-09-26 12:11:00,,0832.6,5.01,0.00,28.8,26.8,00.0,37.8,30.6,16.3,0000.0,0009.81,0006.09,0005.58
2022-09-26 12:12:00,,0832.7,4.99,0.00,28.8,26.7,00.0,37.8,30.5,16.4,0000.0,0009.84,0006.10,0005.58
2022-09-26 12:13:00,,0832.7,5.01,0.00,28.8,26.7,00.0,37.8,30.5,16.4,0000.0,0010.02,0006.14,0005.58
2022-09-26 12:14:00,,0832.6,5.01,0.00,28.7,26.7,00.0,37.8,30.5,16.5,0000.0,0010.12,0006.17,0005.59
2022-09-26 12:15:00,,0832.6,4.99,0.00,28.7,26.6,00.0,37.7,30.4,16.5,0000.0,0010.88,0006.16,0005.58
2022-09-26 12:16:00,,0832.6,5.01,0.00,28.7,26.6,00.0,37.7,30.4,16.4,0000.0,0011.36,0006.18,0005.57
2022-09-26 12:17:00,,0832.6,5.01,0.00,28.7,26.6,00.0,37.7,30.4,16.5,0000.0,0011.01,0006.19,0005.57
2022-09-26 12:18:00,,0832.6,4.98,0.00,28.7,26.6,00.0,37.7,30.4,16.6,0000.0,0010.94,0006.23,0005.58
2022-09-26 12:19:00,,0832.6,5.01,0.00,28.6,26.6,00.0,37.7,30.4,16.6,0000.0,0011.06,0006.28,0005.60
2022-09-26 12:20:00,,0832.6,5.00,0.00,28.6,26.6,00.0,37.6,30.4,16.7,0000.0,0011.12,0006.28,0005.62
2022-09-26 12:21:00,,0832.6,4.98,0.00,28.6,26.7,00.0,37.6,30.4,16.7,0000.0,0011.11,0006.29,0005.63
2022-09-26 12:22:00,,0832.6,5.01,0.00,28.6,26.7,00.0,37.6,30.4,16.6,0000.0,0011.06,0006.29,0005.64
2022-09-26 12:23:00,,0832.6,4.99,0.00,28.6,26.7,00.0,37.6,30.4,16.7,0000.0,0011.01,0006.29,0005.66
2022-09-26 12:24:00,,0832.6,5.00,0.00,28.6,26.7,00.0,37.6,30.4,16.7,0000.0,0011.06,0006.33,0005.66
2022-09-26 12:25:00,,0832.6,5.01,0.00,28.6,26.7,00.0,37.5,30.3,16.7,0000.0,0011.17,0006.33,0005.67
2022-09-26 12:26:00,,0832.6,4.99,0.00,28.5,26.7,00.0,37.5,30.3,16.7,0000.0,0010.67,0006.33,0005.69
2022-09-26 12:27:00,,0832.6,5.00,0.00,28.5,26.6,00.0,37.5,30.3,16.7,0000.0,0010.39,0006.31,0005.71
2022-09-26 12:28:00,,0832.6,5.01,0.00,28.5,26.5,00.0,37.5,30.2,16.7,0000.0,0010.48,0006.32,0005.72
2022-09-26 12:29:00,,0832.6,5.00,0.00,28.5,26.5,00.0,37.5,30.2,16.8,0000.0,0010.39,0006.31,0005.73
2022-09-26 12:30:00,,0832.6,4.99,0.00,28.5,26.5,00.0,37.4,30.2,16.9,0000.0,0010.41,0006.31,0005.72
2022-09-26 12:31:00,,0832.6,5.01,0.00,28.4,26.4,00.0,37.4,30.2,16.9,0000.0,0010.39,0006.33,0005.71
2022-09-26 12:32:00,,0832.6,4.99,0.00,28.4,26.4,00.0,37.4,30.2,17.0,0000.0,0010.50,0006.33,0005.70
2022-09-26 12:33:00,,0832.6,5.01,0.00,28.4,26.4,00.0,37.4,30.2,17.0,0000.0,0010.63,0006.37,0005.70
2022-09-26 12:34:00,,0832.6,4.99,0.00,28.4,26.3,00.0,37.4,30.2,17.0,0000.0,0011.03,0006.45,0005.69
2022-09-26 12:35:00,,0832.6,5.01,0.00,28.4,26.3,00.0,37.4,30.1,17.0,0000.0,0011.12,0006.43,0005.70
2022-09-26 12:36:00,,0832.7,4.99,0.00,28.4,26.5,00.0,37.3,30.2,17.1,0000.0,0011.48,0006.39,0005.69
2022-09-26 12:37:00,,0832.6,5.01,0.00,28.4,26.5,00.0,37.3,30.2,17.0,0000.0,0012.75,0006.40,0005.68
2022-09-26 12:38:00,,0832.6,4.98,0.00,28.4,26.5,00.0,37.3,30.2,16.9,0000.0,0012.57,0006.40,0005.68
2022-09-26 12:39:00,,0832.6,5.00,0.00,28.4,26.6,00.0,37.3,30.2,17.1,0000.0,0012.54,0006.41,0005.67
2022-09-26 12:40:00,,0832.6,4.99,0.00,28.4,26.7,00.0,37.3,30.2,17.0,0000.0,0012.62,0006.44,0005.67
2022-09-26 12:41:00,,0832.6,5.01,0.00,28.4,26.8,00.0,37.3,30.3,17.0,0000.0,0012.75,0006.43,0005.67
2022-09-26 12:42:00,,0832.6,4.98,0.00,28.4,26.8,00.0,37.3,30.3,17.1,0000.0,0012.78,0006.42,0005.68
2022-09-26 12:43:00,,0832.6,5.01,0.00,28.4,26.8,00.0,37.3,30.3,17.0,0000.0,0012.86,0006.43,0005.69
2022-09-26 12:44:00,,0832.6,4.99,0.00,28.5,26.9,00.0,37.3,30.3,17.0,0000.0,0013.08,0006.45,0005.71
2022-09-26 12:45:00,,0832.6,5.01,0.00,28.5,27.0,00.0,37.3,30.3,16.9,0000.0,0012.78,0006.40,0005.74
2022-09-26 12:46:00,,0832.6,5.00,0.00,28.5,26.9,00.0,37.3,30.3,16.9,0000.0,0013.02,0006.39,0005.75
2022-09-26 12:47:00,,0832.6,5.00,0.00,28.5,26.9,00.0,37.3,30.3,16.8,0000.0,0013.67,0006.45,0005.77
2022-09-26 12:48:00,,0832.6,5.01,0.00,28.5,26.8,00.0,37.3,30.3,16.8,0000.0,0012.61,0006.50,0005.80
2022-09-26 12:49:00,,0832.6,5.00,0.00,28.4,26.7,00.0,37.3,30.3,16.8,0000.0,0013.45,0006.51,0005.82
2022-09-26 12:50:00,,0832.6,4.99,0.00,28.4,26.6,00.0,37.3,30.2,16.8,0000.0,0013.57,0006.52,0005.83
2022-09-26 12:51:00,,0832.6,5.00,0.00,28.4,26.6,00.0,37.3,30.2,16.8,0003.1,0013.58,0006.53,0005.85
2022-09-26 12:52:00,,0832.6,4.99,0.00,28.4,26.6,00.0,37.3,30.2,16.8,0002.7,0013.63,0006.54,0005.87
2022-09-26 12:53:00,,0832.6,5.00,0.00,28.4,26.6,00.0,37.2,30.2,16.8,0002.7,0013.71,0006.58,0005.90
2022-09-26 12:54:00,,0832.6,5.00,0.00,28.4,26.6,00.0,37.2,30.2,16.7,0002.7,0013.66,0006.60,0005.93
2022-09-26 12:55:00,,0832.6,5.00,0.00,28.4,26.6,00.0,37.2,30.2,16.8,0002.7,0013.52,0006.63,0005.93
2022-09-26 12:56:00,,0832.6,5.00,0.00,28.4,26.6,00.0,37.2,30.2,16.8,0002.6,0013.59,0006.64,0005.92
2022-09-26 12:57:00,,0832.6,5.00,0.00,28.4,26.6,00.0,37.2,30.2,16.9,0002.6,0013.01,0006.65,0005.92
2022-09-26 12:58:00,,0832.6,5.00,0.00,28.4,26.8,00.0,37.2,30.2,16.8,0002.2,0012.01,0006.65,0005.93
2022-09-26 12:59:00,,0832.6,5.00,0.00,28.4,26.9,00.0,37.2,30.3,16.8,0002.2,0011.75,0006.67,0005.93
